アトラス彗星

C/2019 F2 ( ATLAS )

English version
Home page
Updated on January 20, 2020

---------------------------------------------------------------------

・ プロフィール

発見日 2019年3月26日
発見光度 17.5等
発見者 Asteroid Terrestrial-Impact Last Alert System (ATLAS) search program

・ 写真集

・ 軌道要素

Epoch 2019 Aug. 25.0 TT = JDT 2458720.5
T 2019 Sept. 8.89467 TT                                 Williams
q   2.2328826            (2000.0)            P               Q
n   0.01462762     Peri.   10.95534     -0.99215657     +0.12273721
a  16.5584734      Node   175.86790     -0.12418757     -0.98942785
e   0.8651517      Incl.   19.18886     +0.01424027     -0.07725357
P  67.4
From 572 observations 2019 Feb. 26-Dec. 28, mean residual 0".4.

・ 星図

・ 光度変化

        m1 = 10.2 + 5 logΔ + 10.0 log r

---------------------------------------------------------------------

軌道要素はM.P.E.C. 2020-A105に掲載されたものです。
星図はステラナビゲータ Ver.10 (アストロアーツ) で作成したものです。
光度グラフはComet for Windowsで作成したものです。

---------------------------------------------------------------------

Copyright(C) Seiichi Yoshida (comet@aerith.net). All rights reserved.